Regional Weather Roundup
Issued by NWS Little Rock, AR

Home | Current Version | Previous Version | Text Only | Print | Product List | Glossary Off
Versions: 1 2 3 4 5 6 7 8 9 10 11 12 13 14 15 16 17 18 19 20 21 22 23 24 25 26 27 28 29 30 31 32

000
ASUS44 KLZK 242205
RWRLZK

WEATHER ROUNDUP FOR ARKANSAS
NATIONAL WEATHER SERVICE LITTLE ROCK AR
500 PM CDT MON APR 24 2017

NOTE: "FAIR" INDICATES FEW OR NO CLOUDS BELOW 12,000 FEET WITH NO
SIGNIFICANT WEATHER AND/OR OBSTRUCTIONS TO VISIBILITY.

ARZ001-003-010-029-242300-
NORTHWEST ARKANSAS

CITY           SKY/WX    TMP DP  RH WIND       PRES   REMARKS
FAYETTEVILLE   SUNNY     73  40  30 SE15G21   29.71F
FORT SMITH     SUNNY     80  38  22 SE8       29.69F
HARRISON       SUNNY     77  32  19 S9        29.74F
BENTONVILLE    SUNNY     75  36  23 S13G21    29.71F
ROGERS         SUNNY     76  36  23 SE13      29.71F
SILOAM SPGS    SUNNY     73  39  29 S15G24    29.70F
HIGHFILL       SUNNY     74  39  28 S21G26    29.70F
SPRINGDALE     SUNNY     75  36  23 SE12G23   29.73F
$$

ARZ004-005-016-242300-
NORTH CENTRAL ARKANSAS

CITY           SKY/WX    TMP DP  RH WIND       PRES   REMARKS
BATESVILLE     SUNNY    N/A N/A N/A E7        29.76F
FLIPPIN        SUNNY    N/A N/A N/A SE5       29.72F
MTN HOME       SUNNY     76  39  26 SW6       29.75F
$$

ARZ040-041-242300-
WEST CENTRAL ARKANSAS

CITY           SKY/WX    TMP DP  RH WIND       PRES   REMARKS
MENA           SUNNY     77  43  29 CALM      29.77F
MOUNT IDA      SUNNY     78  35  21 VRB6      29.75
$$

ARZ009-017-025-026-028-242300-
NORTHEAST ARKANSAS

CITY           SKY/WX    TMP DP  RH WIND       PRES   REMARKS
JONESBORO      SUNNY     74  49  41 SE7       29.76F
NEWPORT        SUNNY     74  47  38 MISG        N/A
WALNUT RIDGE   SUNNY     73  46  38 SE6       29.76F
BLYTHEVILLE    MOSUNNY   74  57  55 VRB5      29.78F
NW BLYTHEVILLE MOSUNNY   73  54  49 E6        29.78F
$$

ARZ022-023-033-042-044-242300-
CENTRAL ARKANSAS

CITY           SKY/WX    TMP DP  RH WIND       PRES   REMARKS
LITTLE ROCK    MOSUNNY   75  37  25 SE8       29.77F
N LITTLE ROCK    N/A     76  40  27 SE7       29.77F
JACKSONVILLE   SUNNY     78  45  30 SE9       29.75F
CONWAY           N/A     77  37  24 SE7G13    29.75F
SEARCY         SUNNY     77  46  33 SE6       29.78F
HOT SPRINGS    SUNNY     78  40  25 S8        29.77F
RUSSELLVILLE   SUNNY     76  37  24 CALM      29.75F
$$

ARZ036-242300-
EAST ARKANSAS

CITY           SKY/WX    TMP DP  RH WIND       PRES   REMARKS
WEST MEMPHIS   SUNNY     74  56  53 NE3       29.76F
$$

ARZ050-053-066-070-073-242300-
SOUTHWEST ARKANSAS

CITY           SKY/WX    TMP DP  RH WIND       PRES   REMARKS
ARKADELPHIA    FAIR      78  43  28 VRB3      29.77F
CAMDEN         SUNNY     79  37  22 S5        29.77F
TEXARKANA      SUNNY     77  44  30 S9        29.77F
EL DORADO        N/A    N/A N/A N/A MISG      29.78F
DE QUEEN       SUNNY     76  46  34 S8        29.74F
$$

ARZ056-057-069-242300-
SOUTHEAST ARKANSAS

CITY           SKY/WX    TMP DP  RH WIND       PRES   REMARKS
PINE BLUFF     SUNNY     76  43  30 E6        29.78F
STUTTGART      SUNNY     75  45  33 SW5       29.79F
MONTICELLO     SUNNY     76  43  30 CALM      29.78F

$$






USA.gov is the U.S. government's official web portal to all federal, state and local government web resources and services.